Weather History for LIEA - December, 2012

Change the Weather History Date:

Monday, December 31, 2012

  Actual Average Record
Temperature  
Mean Temperature 48 °F -  
Max Temperature 59 °F 55 °F 62 °F (1997)
Min Temperature 37 °F 39 °F 26 °F (1999)
Degree Days  
Heating Degree Days 17    
Moisture  
Dew Point 43 °F    
Average Humidity 86    
Maximum Humidity 100    
Minimum Humidity 55    
Precipitation  
Precipitation 0.00 in 0.08 in - ()
Sea Level Pressure  
Sea Level Pressure 30.23 in    
Wind  
Wind Speed 2 mph ()    
Max Wind Speed 9 mph    
Max Gust Speed -    
Visibility 5.5 miles    
Events      
Averages and records for this station are not official NWS values.
T = Trace of Precipitation, MM = Missing Value Source: Averaged Metar Reports

Daily Weather History Graph

Daily Weather History Graph

Search for Another Location

Airport or City:

Trip Planner

Search our weather history database for the weather conditions in past years. The results will help you decide how hot, cold, wet, or windy it might be!

Date:

Astronomy

Dec. 31, 2012 Rise Set
Actual Time 7:50 AM CET 5:09 PM CET
Civil Twilight 7:19 AM CET 5:40 PM CET
Nautical Twilight 6:45 AM CET 6:14 PM CET
Astronomical Twilight 6:12 AM CET 6:48 PM CET
Moon 8:24 PM CET (12/31) 9:22 AM CET (12/31)
Length of Visible Light 10h 20m
Length of Day
9h 19m
Waning Gibbous, 92% of the Moon is Illuminated
Dec 31
Waning Gibbous
Jan 5
Last Quarter
Jan 11
New
Jan 19
First Quarter
Jan 27
Full

Hourly Weather History & Observations

Time (CET) Temp. Windchill Dew Point Humidity Pressure Visibility Wind Dir Wind Speed Gust Speed Precip Events Conditions
12:20 AM 39.2 °F - 39.2 °F 100% 30.30 in 6.2 mi Calm Calm - N/A   Scattered Clouds
12:50 AM 37.4 °F - 37.4 °F 100% 30.27 in 2.5 mi Variable 1.2 mph - N/A   Scattered Clouds
1:20 AM 37.4 °F - 37.4 °F 100% 30.27 in 2.5 mi Calm Calm - N/A   Scattered Clouds
1:50 AM 39.2 °F - 39.2 °F 100% 30.27 in 2.5 mi Variable 2.3 mph - N/A   Scattered Clouds
2:20 AM 39.2 °F - 39.2 °F 100% 30.27 in 2.5 mi Variable 1.2 mph - N/A   Scattered Clouds
2:50 AM 39.2 °F - 37.4 °F 93% 30.27 in 2.5 mi Calm Calm - N/A   Scattered Clouds
3:20 AM 39.2 °F - 39.2 °F 100% 30.27 in 2.5 mi Variable 2.3 mph - N/A   Scattered Clouds
3:50 AM 41.0 °F - 39.2 °F 93% 30.27 in 4.3 mi Calm Calm - N/A   Scattered Clouds
4:20 AM 39.2 °F - 37.4 °F 93% 30.27 in 4.3 mi Variable 2.3 mph - N/A   Scattered Clouds
5:20 AM 41.0 °F - 39.2 °F 93% 30.27 in 4.3 mi Variable 1.2 mph - N/A   Scattered Clouds
5:50 AM 41.0 °F - 39.2 °F 93% 30.27 in 4.3 mi Variable 2.3 mph - N/A   Scattered Clouds
6:20 AM 41.0 °F - 41.0 °F 100% 30.27 in 6.2 mi Calm Calm - N/A   Scattered Clouds
6:50 AM 42.8 °F - 41.0 °F 93% 30.27 in 6.2 mi Variable 1.2 mph - N/A   Scattered Clouds
7:20 AM 42.8 °F - 41.0 °F 93% 30.27 in 6.2 mi Calm Calm - N/A   Scattered Clouds
7:50 AM 42.8 °F - 41.0 °F 93% 30.27 in 6.2 mi Calm Calm - N/A   Scattered Clouds
8:20 AM 41.0 °F - 41.0 °F 100% 30.27 in 6.2 mi Variable 1.2 mph - N/A   Scattered Clouds
8:50 AM 44.6 °F - 42.8 °F 93% 30.27 in 6.2 mi Variable 2.3 mph - N/A   Scattered Clouds
9:20 AM 46.4 °F - 44.6 °F 93% 30.27 in 6.2 mi Variable 2.3 mph - N/A   Scattered Clouds
9:50 AM 48.2 °F - 46.4 °F 93% 30.27 in 6.2 mi Variable 2.3 mph - N/A   Scattered Clouds
10:20 AM 50.0 °F - 48.2 °F 94% 30.27 in 6.2 mi Calm Calm - N/A   Scattered Clouds
10:50 AM 53.6 °F - 48.2 °F 82% 30.27 in 6.2 mi Variable 2.3 mph - N/A   Partly Cloudy
11:20 AM 57.2 °F - 44.6 °F 63% 30.27 in 6.2 mi South 5.8 mph - N/A   Partly Cloudy
11:50 AM 57.2 °F - 44.6 °F 63% 30.27 in 6.2 mi South 6.9 mph - N/A   Partly Cloudy
12:20 PM 57.2 °F - 42.8 °F 59% 30.24 in 6.2 mi WSW 8.1 mph - N/A   Partly Cloudy
12:50 PM 59.0 °F - 42.8 °F 55% 30.24 in 6.2 mi SW 9.2 mph - N/A   Partly Cloudy
1:20 PM 57.2 °F - 42.8 °F 59% 30.24 in 6.2 mi WSW 8.1 mph - N/A   Partly Cloudy
1:50 PM 57.2 °F - 42.8 °F 59% 30.21 in 6.2 mi SW 9.2 mph - N/A   Partly Cloudy
2:20 PM 57.2 °F - 44.6 °F 63% 30.21 in 6.2 mi SSW 9.2 mph - N/A   Scattered Clouds
2:50 PM 57.2 °F - 46.4 °F 67% 30.21 in 6.2 mi SSW 9.2 mph - N/A   Scattered Clouds
3:20 PM 57.2 °F - 44.6 °F 63% 30.21 in 6.2 mi SSW 8.1 mph - N/A   Scattered Clouds
3:50 PM 55.4 °F - 46.4 °F 72% 30.21 in 6.2 mi SSW 6.9 mph - N/A   Scattered Clouds
4:20 PM 53.6 °F - 46.4 °F 77% 30.21 in 6.2 mi SSE 3.5 mph - N/A   Scattered Clouds
4:50 PM 51.8 °F - 44.6 °F 76% 30.21 in 6.2 mi Variable 1.2 mph - N/A   Partly Cloudy
5:20 PM 50.0 °F - 46.4 °F 87% 30.18 in 6.2 mi WSW 3.5 mph - N/A   Partly Cloudy
5:50 PM 48.2 °F - 44.6 °F 87% 30.18 in - Variable 1.2 mph - N/A   Clear
6:20 PM 46.4 °F - 42.8 °F 87% 30.18 in - Calm Calm - N/A   Clear
6:50 PM 46.4 °F - 44.6 °F 93% 30.21 in - SE 1.2 mph - N/A   Clear
7:20 PM 44.6 °F 43.1 °F 42.8 °F 93% 30.21 in - East 3.5 mph - N/A   Clear
7:50 PM 46.4 °F - 44.6 °F 93% 30.21 in 6.2 mi ENE 2.3 mph - N/A   Scattered Clouds
8:20 PM 46.4 °F - 44.6 °F 93% 30.18 in 6.2 mi NNE 2.3 mph - N/A   Scattered Clouds
8:50 PM 46.4 °F - 44.6 °F 93% 30.18 in 6.2 mi NNE 2.3 mph - N/A   Scattered Clouds
9:20 PM 46.4 °F 45.2 °F 44.6 °F 93% 30.18 in 6.2 mi North 3.5 mph - N/A   Scattered Clouds
9:50 PM 46.4 °F - 44.6 °F 93% 30.18 in 6.2 mi Variable 2.3 mph - N/A   Scattered Clouds
10:20 PM 46.4 °F 45.2 °F 44.6 °F 93% 30.18 in 6.2 mi North 3.5 mph - N/A   Scattered Clouds
10:50 PM 46.4 °F 45.2 °F 44.6 °F 93% 30.18 in 6.2 mi NE 3.5 mph - N/A   Scattered Clouds
11:20 PM 46.4 °F - 44.6 °F 93% 30.18 in 6.2 mi Calm Calm - N/A   Scattered Clouds
11:50 PM 46.4 °F - 42.8 °F 87% 30.18 in 6.2 mi Calm Calm - N/A   Scattered Clouds